Back to catalog

TIANMU-1 20

AliveWeatherSSO
NORAD 58661·PAYLOAD·🇨🇳 China

Launched Dec 27, 2023 from Jiuquan Satellite Launch Center

Loading…

Next Passes (next 24 hours)

TLE

FreshSource: Space-Track

Epoch: Sep 14, 2026, 14:18 UTC

1 58661U 23208B   26257.59643274  .00006970  00000-0  21428-3 0  9995
2 58661  97.4523  15.1978 0006971  16.3893 343.7574 15.33987574151127

Track TIANMU-1 20 in real time with AllMySat

Download on the App Store